Location: Góry Miechowskie
(50.3599°N, 20.1803°E)
Time: 16:44:00
(UTC+00:00)

deb Explorer IX - Pass Details

Date: 18 September 2024
Orbit: 504 x 830 km, 38.7° (Epoch: 04 October)

Event Time Altitude Azimuth Distance (km) Brightness Sun altitude
Rises 20:13:42 0° 256° (WSW) 3,418 ? -30.3°
Reaches altitude 10° 20:16:44 10° 242° (WSW) 2,481 ? -30.6°
Enters shadow 20:17:52 14° 234° (SW) 2,181 ? -30.7°
